Location: eljas
(40.1958°N, 6.8661°W)
Time: 19:13:15
(UTC+01:00)

Daily predictions for brighter satellites

Satellite Brightness Start Highest point End
(mag) Time Altitude Azimuth Time Altitude Azimuth Time Altitude Azimuth
Cosmos 1484 Rocket 3.3 18:56:36 10° SE 19:00:15 37° ENE 19:03:58 10° N
Cosmos 2084 4.2 18:58:56 10° SW 19:02:41 45° NW 19:06:21 10° NNE
Cosmos 1500 Rocket 3.5 18:58:54 10° S 19:03:13 85° E 19:07:37 10° N
Cosmos 1634 Rocket 4.0 18:57:08 10° N 19:03:19 73° E 19:09:28 10° SSE
Cosmos 371 Rocket 3.7 19:01:38 10° SSW 19:06:25 69° WNW 19:11:14 10° NNE
SMAP 3.3 19:03:46 10° S 19:08:24 76° WSW 19:13:05 10° NNW
Cosmos 2058 3.2 19:05:07 10° SSE 19:09:00 43° E 19:12:53 10° NNE
Cosmos 1980 3.8 19:04:54 10° SSW 19:10:35 89° WNW 19:16:19 10° NNE
Cosmos 1461 3.6 19:07:13 10° S 19:11:03 34° ESE 19:14:47 10° NE
CORIOLIS 4.3 19:05:50 10° SSE 19:11:11 85° W 19:16:34 10° NNW
Sich 1 4.4 19:09:07 10° SE 19:12:14 19° E 19:15:21 10° NE
Meteor 1-11 4.3 19:09:06 10° S 19:14:39 58° E 19:20:17 10° NNE
Meteor 1-28 Rocket 4.1 19:12:21 10° NE 19:15:38 29° E 19:18:54 10° SSE
CZ-4 R/B 4.4 19:12:17 10° SSE 19:16:26 88° E 19:20:36 10° NNW
IDEFIX/ARIANE 42P 3.5 19:13:09 10° S 19:18:15 54° W 19:23:24 10° NNW
MSX 4.0 19:14:46 10° SSE 19:20:29 81° WSW 19:26:15 10° NNW
Cosmos 1633 Rocket 4.3 19:17:32 10° SE 19:20:46 20° E 19:24:01 10° NE
USA 215 3.8 19:16:40 10° E 19:22:39 40° NNE 19:28:39 10° NW
Timation 1 Rocket 4.4 19:20:55 10° NNW 19:26:51 56° ENE 19:32:44 10° SE
Cosmos 2219 Rocket 3.4 19:24:29 10° SW 19:29:47 41° WNW 19:35:06 10° N
Cosmos 1356 Rocket 4.1 19:26:32 10° SSE 19:30:03 31° E 19:33:35 10° NNE
MONITOR-E 4.4 19:27:56 10° S 19:31:05 76° WSW 19:34:15 10° NNW
Cosmos 2333 Rocket 3.0 19:26:11 10° SW 19:31:39 51° WNW 19:37:10 10° NNE
Cosmos 372 Rocket 4.0 19:27:33 10° NNW 19:32:41 86° WSW 19:37:46 10° SSE
Cosmos 540 Rocket 4.1 19:32:20 10° SSW 19:37:24 57° WNW 19:42:31 10° N
Lacrosse 5 rocket 1.4 19:34:25 10° NW 19:38:13 74° SW 19:42:13 10° SE
FAST Rocket 4.4 19:40:02 10° SSE 19:42:29 36° E 19:43:48 21° NE
Cosmos 2278 Rocket 2.9 19:37:08 10° NNW 19:42:43 59° WSW 19:48:15 10° S
Cosmos 304 Rocket 3.7 19:38:28 10° SSW 19:43:16 82° ESE 19:48:06 10° NNE
Abrixas 3.5 19:40:46 10° W 19:43:30 35° NNW 19:44:59 21° NNE
Aureole 2 Rocket 3.5 19:42:00 10° SW 19:45:39 53° WNW 19:49:38 10° N
Cosmos 1707 Rocket 3.6 19:41:27 10° N 19:45:42 52° E 19:49:56 10° SSE
COSMO-SKYMED 1 2.7 19:42:02 10° N 19:46:23 76° WNW 19:50:42 10° SSW
FREGAT/IRIS 3.2 19:46:35 10° SE 19:49:23 33° ENE 19:52:11 10° N
Cosmos 1626 2.1 19:46:15 10° S 19:49:55 57° E 19:53:36 10° NNE
Cosmos 2279 Rocket 4.1 19:44:50 10° N 19:51:05 81° W 19:57:18 10° S
Cosmos 1666 Rocket 3.5 19:51:18 10° S 19:55:34 61° E 19:59:53 10° NNE
Resurs 01 Rocket 2.4 19:56:43 25° E 19:57:56 29° ENE 20:01:46 10° N
CENTAUR R/B 4.5 19:53:19 10° W 19:58:08 22° NNW 20:03:24 10° NNE
BREEZE-M DEB (TANK) 2.2 19:56:13 10° WSW 19:58:33 56° NNW 19:59:14 38° NNE
Lacrosse 5 4.1 19:58:00 10° NNW 19:59:40 11° N 20:01:20 10° NNE
Coronas F rocket 3.8 19:58:18 10° SSE 19:58:19 10° SSE 19:58:19 10° SSE
USA 229 DEB 3.9 19:56:19 10° S 20:02:53 52° ESE 20:07:14 22° NE
USA 229 3.9 19:56:26 10° S 20:02:59 51° ESE 20:07:17 22° NE
Cosmos 1900 4.3 20:00:35 10° NNW 20:05:35 89° WSW 20:10:36 10° SSE
Cosmos 2237 Rocket 3.7 20:01:11 10° SW 20:06:17 35° WNW 20:11:26 10° N
SJ-6B 2.8 20:02:21 10° SSE 20:06:23 69° ENE 20:10:31 10° N
Cosmos 1455 2.0 20:02:44 10° N 20:06:32 67° E 20:10:20 10° SSE
Cosmos 1703 3.7 20:03:26 10° SSW 20:07:16 61° W 20:11:09 10° N
Nadezhda 4 Rocket 3.9 20:03:47 10° S 20:10:01 78° E 20:16:21 10° N
BREEZE M DEB (TANK) 1.4 20:08:41 10° WNW 20:10:42 62° WNW 20:10:42 62° WNW
Cosmos 2369 Rocket 3.8 20:07:05 10° N 20:09:37 18° NNE 20:09:37 18° NNE
CZ-3A R/B 2.8 20:07:10 10° NW 20:11:51 65° NE 20:15:52 20° ESE
SL-16 R/B 2.5 20:07:58 10° SSW 20:13:35 69° WNW 20:19:12 10° NNE
BREEZE-M DEB (TANK) 3.7 20:23:29 10° SW 20:24:13 24° SW 20:24:13 24° SW
Spot 2 Rocket 3.4 20:20:32 10° SSE 20:25:28 57° ENE 20:30:25 10° N
Cosmos 2297 4.4 20:20:46 10° NNW 20:26:20 55° WSW 20:31:54 10° S
ALOS 2.1 20:23:42 10° SSE 20:28:19 67° ENE 20:32:58 10° N
Cosmos 1470 Rocket 3.9 20:24:16 10° S 20:27:38 46° SE 20:27:38 46° SE
Tiangong 1 3.6 20:27:25 10° SSW 20:28:04 14° S 20:28:04 14° S
Lacrosse 4 Rocket 1.9 20:26:13 10° NNW 20:29:10 42° N 20:29:10 42° N
Cosmos 2242 Rocket 3.4 20:26:31 10° N 20:30:58 85° E 20:35:24 10° S
Cosmos 1092 Rocket 3.9 20:24:52 10° S 20:31:11 82° E 20:37:34 10° N
Iridium 4 Rocket 3.0 20:32:04 10° S 20:36:36 87° W 20:38:33 32° N
SL-19 R/B 4.3 20:33:19 10° SSE 20:39:14 86° WSW 20:44:53 10° NNW
Cosmos 292 Rocket 3.7 20:34:58 10° S 20:39:25 67° SE 20:39:25 67° SE
FENGYUN 3A 3.5 20:39:26 10° SSE 20:44:48 89° WSW 20:50:13 10° NNW
Cosmos 923 Rocket 3.9 20:43:25 10° SSW 20:48:38 86° WNW 20:49:37 60° NNE
Cosmos 1869 3.9 20:46:08 10° NNW 20:50:06 57° W 20:54:04 10° S
Aureole 1 Rocket 4.2 20:46:30 10° SSW 20:51:49 64° WNW 20:58:40 11° NNE
NOSS 3-1 (C) 4.2 20:49:52 10° S 20:53:16 33° SSE 20:53:16 33° SSE
Cosmos 1680 Rocket 3.4 20:50:22 10° SSW 20:55:04 73° S 20:55:04 73° S
Cosmos 2195 Rocket 4.3 20:49:30 10° S 20:55:36 83° E 20:58:44 31° N
ATLAS 5 CENTAUR R/B 4.2 20:58:53 10° N 21:00:39 17° N 21:00:39 17° N
USA 215 3.4 21:02:48 39° SSE 21:05:22 70° SW 21:11:56 10° NW
Cosmos 1603 4.2 21:12:47 10° SW 21:18:16 55° WNW 21:18:40 54° NW
CZ-4C R/B 4.4 21:17:30 10° NNW 21:20:12 20° N 21:20:12 20° N
Cosmos 1655 Rocket 4.3 21:17:02 10° S 21:22:12 61° SSW 21:22:12 61° SSW
Resurs 01 Rocket 3.7 21:34:16 25° W 21:34:22 25° W 21:38:03 10° NW
Cosmos 2369 Rocket 4.3 21:50:01 10° NNW 21:51:28 18° NNW 21:51:28 18° NNW
